Year,Month,Day,Hour,Minute,Value (Times are PST for insolation in W/m^2)
2007,10,02,05,54,0.00
2007,10,02,05,55,0.00
2007,10,02,05,56,0.00
2007,10,02,05,57,0.00
2007,10,02,05,58,0.00
2007,10,02,05,59,0.00
2007,10,02,06,00,0.00
2007,10,02,06,01,0.00
2007,10,02,06,02,0.00
2007,10,02,06,03,0.00
2007,10,02,06,04,0.00
2007,10,02,06,05,0.00
2007,10,02,06,06,0.00
2007,10,02,06,07,0.00
2007,10,02,06,08,0.00
2007,10,02,06,09,0.00
2007,10,02,06,10,0.00
2007,10,02,06,11,0.00
2007,10,02,06,12,0.00
2007,10,02,06,13,0.00
2007,10,02,06,14,0.00
2007,10,02,06,15,0.00
2007,10,02,06,16,0.00
2007,10,02,06,17,0.00
2007,10,02,06,18,0.00
2007,10,02,06,19,0.00
2007,10,02,06,20,0.00
2007,10,02,06,21,0.00
2007,10,02,06,22,0.00
2007,10,02,06,23,0.00
2007,10,02,06,24,0.00
2007,10,02,06,25,0.00
2007,10,02,06,26,0.00
2007,10,02,06,27,0.00
2007,10,02,06,28,0.00
2007,10,02,06,29,0.00
2007,10,02,06,30,0.00
2007,10,02,06,31,0.00
2007,10,02,06,32,0.00
2007,10,02,06,33,0.00
2007,10,02,06,34,0.00
2007,10,02,06,35,0.00
2007,10,02,06,36,0.00
2007,10,02,06,37,0.00
2007,10,02,06,38,0.00
2007,10,02,06,39,0.00
2007,10,02,06,40,0.00
2007,10,02,06,41,0.00
2007,10,02,06,42,0.00
2007,10,02,06,43,0.00
2007,10,02,06,44,0.00
2007,10,02,06,45,0.00
2007,10,02,06,46,0.00
2007,10,02,06,47,0.00
2007,10,02,06,48,0.00
2007,10,02,06,49,0.00
2007,10,02,06,50,0.00
2007,10,02,06,51,0.00
2007,10,02,06,52,0.00
2007,10,02,06,53,0.00
2007,10,02,06,54,0.00
2007,10,02,06,55,0.00
2007,10,02,06,56,0.00
2007,10,02,06,57,0.00
2007,10,02,06,58,0.00
2007,10,02,06,59,0.00
2007,10,02,07,00,0.00
2007,10,02,07,01,0.00
2007,10,02,07,02,0.00
2007,10,02,07,03,0.00
2007,10,02,07,04,0.00
2007,10,02,07,05,0.00
2007,10,02,07,06,0.00
2007,10,02,07,07,0.00
2007,10,02,07,08,0.00
2007,10,02,07,09,0.00
2007,10,02,07,10,0.00
2007,10,02,07,11,0.00
2007,10,02,07,12,0.00
2007,10,02,07,13,0.00
2007,10,02,07,14,0.00
2007,10,02,07,15,0.00
2007,10,02,07,16,0.00
2007,10,02,07,17,0.00
2007,10,02,07,18,0.00
2007,10,02,07,19,0.00
2007,10,02,07,20,0.00
2007,10,02,07,21,0.00
2007,10,02,07,22,0.00
2007,10,02,07,23,0.00
2007,10,02,07,24,0.00
2007,10,02,07,25,0.00
2007,10,02,07,26,0.00
2007,10,02,07,27,0.00
2007,10,02,07,28,0.00
2007,10,02,07,29,0.00
2007,10,02,07,30,0.00
2007,10,02,07,31,0.00
2007,10,02,07,32,0.00
2007,10,02,07,33,5.00
2007,10,02,07,34,5.00
2007,10,02,07,35,5.10
2007,10,02,07,36,7.00
2007,10,02,07,37,7.30
2007,10,02,07,38,9.00
2007,10,02,07,39,9.40
2007,10,02,07,40,11.00
2007,10,02,07,41,11.00
2007,10,02,07,42,11.00
2007,10,02,07,43,11.40
2007,10,02,07,44,12.00
2007,10,02,07,45,12.00
2007,10,02,07,46,12.00
2007,10,02,07,47,13.20
2007,10,02,07,48,15.30
2007,10,02,07,49,16.00
2007,10,02,07,50,17.60
2007,10,02,07,51,18.00
2007,10,02,07,52,18.80
2007,10,02,07,53,19.00
2007,10,02,07,54,20.60
2007,10,02,07,55,21.00
2007,10,02,07,56,21.00
2007,10,02,07,57,19.00
2007,10,02,07,58,19.00
2007,10,02,07,59,23.10
2007,10,02,08,00,25.00
2007,10,02,08,01,25.20
2007,10,02,08,02,26.40
2007,10,02,08,03,27.50
2007,10,02,08,04,26.70
2007,10,02,08,05,28.00
2007,10,02,08,06,27.30
2007,10,02,08,07,26.00
2007,10,02,08,08,26.90
2007,10,02,08,09,30.20
2007,10,02,08,10,33.80
2007,10,02,08,11,37.20
2007,10,02,08,12,39.00
2007,10,02,08,13,39.70
2007,10,02,08,14,41.60
2007,10,02,08,15,42.00
2007,10,02,08,16,40.20
2007,10,02,08,17,39.10
2007,10,02,08,18,35.60
2007,10,02,08,19,32.30
2007,10,02,08,20,32.00
2007,10,02,08,21,33.00
2007,10,02,08,22,33.00
2007,10,02,08,23,34.20
2007,10,02,08,24,40.90
2007,10,02,08,25,44.70
2007,10,02,08,26,47.00
2007,10,02,08,27,47.00
2007,10,02,08,28,47.00
2007,10,02,08,29,47.00
2007,10,02,08,30,47.00
2007,10,02,08,31,48.00
2007,10,02,08,32,47.90
2007,10,02,08,33,46.40
2007,10,02,08,34,46.00
2007,10,02,08,35,46.70
2007,10,02,08,36,49.60
2007,10,02,08,37,53.50
2007,10,02,08,38,54.00
2007,10,02,08,39,53.10
2007,10,02,08,40,53.90
2007,10,02,08,41,58.00
2007,10,02,08,42,62.00
2007,10,02,08,43,63.00
2007,10,02,08,44,63.00
2007,10,02,08,45,62.90
2007,10,02,08,46,62.00
2007,10,02,08,47,62.00
2007,10,02,08,48,62.20
2007,10,02,08,49,63.50
2007,10,02,08,50,65.60
2007,10,02,08,51,68.10
2007,10,02,08,52,72.50
2007,10,02,08,53,76.40
2007,10,02,08,54,79.00
2007,10,02,08,55,82.10
2007,10,02,08,56,83.00
2007,10,02,08,57,83.60
2007,10,02,08,58,85.20
2007,10,02,08,59,88.90
2007,10,02,09,00,90.80
2007,10,02,09,01,92.70
2007,10,02,09,02,94.80
2007,10,02,09,03,96.90
2007,10,02,09,04,98.00
2007,10,02,09,05,97.00
2007,10,02,09,06,93.00
2007,10,02,09,07,87.70
2007,10,02,09,08,82.60
2007,10,02,09,09,79.00
2007,10,02,09,10,79.00
2007,10,02,09,11,79.80
2007,10,02,09,12,83.20
2007,10,02,09,13,84.00
2007,10,02,09,14,84.00
2007,10,02,09,15,84.00
2007,10,02,09,16,84.00
2007,10,02,09,17,84.00
2007,10,02,09,18,85.10
2007,10,02,09,19,87.20
2007,10,02,09,20,89.90
2007,10,02,09,21,94.70
2007,10,02,09,22,98.90
2007,10,02,09,23,100.00
2007,10,02,09,24,94.20
2007,10,02,09,25,86.80
2007,10,02,09,26,80.40
2007,10,02,09,27,77.30
2007,10,02,09,28,81.00
2007,10,02,09,29,85.80
2007,10,02,09,30,91.40
2007,10,02,09,31,98.60
2007,10,02,09,32,104.80
2007,10,02,09,33,109.90
2007,10,02,09,34,114.80
2007,10,02,09,35,118.80
2007,10,02,09,36,121.70
2007,10,02,09,37,123.70
2007,10,02,09,38,125.00
2007,10,02,09,39,122.50
2007,10,02,09,40,119.00
2007,10,02,09,41,118.00
2007,10,02,09,42,116.80
2007,10,02,09,43,116.00
2007,10,02,09,44,114.60
2007,10,02,09,45,114.00
2007,10,02,09,46,113.20
2007,10,02,09,47,115.50
2007,10,02,09,48,122.20
2007,10,02,09,49,131.90
2007,10,02,09,50,139.00
2007,10,02,09,51,141.70
2007,10,02,09,52,139.00
2007,10,02,09,53,137.10
2007,10,02,09,54,139.00
2007,10,02,09,55,139.30
2007,10,02,09,56,142.30
2007,10,02,09,57,144.40
2007,10,02,09,58,145.40
2007,10,02,09,59,143.10
2007,10,02,10,00,139.00
2007,10,02,10,01,132.80
2007,10,02,10,02,130.00
2007,10,02,10,03,123.00
2007,10,02,10,04,116.00
2007,10,02,10,05,119.10
2007,10,02,10,06,128.10
2007,10,02,10,07,136.30
2007,10,02,10,08,144.40
2007,10,02,10,09,142.90
2007,10,02,10,10,136.80
2007,10,02,10,11,130.60
2007,10,02,10,12,130.00
2007,10,02,10,13,132.00
2007,10,02,10,14,133.80
2007,10,02,10,15,132.00
2007,10,02,10,16,132.30
2007,10,02,10,17,138.00
2007,10,02,10,18,146.60
2007,10,02,10,19,151.00
2007,10,02,10,20,150.30
2007,10,02,10,21,148.30
2007,10,02,10,22,150.80
2007,10,02,10,23,155.00
2007,10,02,10,24,156.30
2007,10,02,10,25,160.20
2007,10,02,10,26,165.70
2007,10,02,10,27,171.80
2007,10,02,10,28,181.30
2007,10,02,10,29,180.90
2007,10,02,10,30,178.70
2007,10,02,10,31,171.80
2007,10,02,10,32,160.40
2007,10,02,10,33,152.10
2007,10,02,10,34,151.00
2007,10,02,10,35,157.60
2007,10,02,10,36,167.00
2007,10,02,10,37,174.00
2007,10,02,10,38,183.00
2007,10,02,10,39,182.80
2007,10,02,10,40,177.90
2007,10,02,10,41,167.20
2007,10,02,10,42,157.30
2007,10,02,10,43,155.00
2007,10,02,10,44,153.90
2007,10,02,10,45,151.60
2007,10,02,10,46,153.00
2007,10,02,10,47,153.00
2007,10,02,10,48,153.00
2007,10,02,10,49,162.50
2007,10,02,10,50,178.10
2007,10,02,10,51,183.00
2007,10,02,10,52,183.00
2007,10,02,10,53,191.40
2007,10,02,10,54,213.10
2007,10,02,10,55,221.50
2007,10,02,10,56,217.20
2007,10,02,10,57,217.80
2007,10,02,10,58,212.40
2007,10,02,10,59,211.00
2007,10,02,11,00,214.00
2007,10,02,11,01,215.90
2007,10,02,11,02,221.00
2007,10,02,11,03,221.00
2007,10,02,11,04,216.60
2007,10,02,11,05,194.50
2007,10,02,11,06,202.90
2007,10,02,11,07,206.30
2007,10,02,11,08,207.00
2007,10,02,11,09,206.70
2007,10,02,11,10,203.60
2007,10,02,11,11,191.80
2007,10,02,11,12,181.00
2007,10,02,11,13,183.10
2007,10,02,11,14,188.50
2007,10,02,11,15,194.80
2007,10,02,11,16,191.60
2007,10,02,11,17,195.90
2007,10,02,11,18,197.30
2007,10,02,11,19,193.60
2007,10,02,11,20,192.10
2007,10,02,11,21,188.20
2007,10,02,11,22,181.40
2007,10,02,11,23,185.00
2007,10,02,11,24,192.00
2007,10,02,11,25,190.70
2007,10,02,11,26,203.60
2007,10,02,11,27,216.80
2007,10,02,11,28,220.30
2007,10,02,11,29,218.40
2007,10,02,11,30,220.00
2007,10,02,11,31,217.70
2007,10,02,11,32,216.90
2007,10,02,11,33,222.10
2007,10,02,11,34,220.50
2007,10,02,11,35,220.00
2007,10,02,11,36,220.00
2007,10,02,11,37,230.40
2007,10,02,11,38,237.70
2007,10,02,11,39,231.90
2007,10,02,11,40,227.70
2007,10,02,11,41,222.30
2007,10,02,11,42,222.70
2007,10,02,11,43,221.20
2007,10,02,11,44,214.50
2007,10,02,11,45,200.00
2007,10,02,11,46,197.00
2007,10,02,11,47,193.20
2007,10,02,11,48,186.20
2007,10,02,11,49,190.30
2007,10,02,11,50,194.00
2007,10,02,11,51,199.90
2007,10,02,11,52,204.60
2007,10,02,11,53,206.80
2007,10,02,11,54,204.80
2007,10,02,11,55,201.40
2007,10,02,11,56,199.60
2007,10,02,11,57,204.70
2007,10,02,11,58,220.50
2007,10,02,11,59,228.00
2007,10,02,12,00,227.00
2007,10,02,12,01,223.70
2007,10,02,12,02,221.00
2007,10,02,12,03,223.90
2007,10,02,12,04,226.60
2007,10,02,12,05,225.30
2007,10,02,12,06,221.40
2007,10,02,12,07,222.70
2007,10,02,12,08,223.00
2007,10,02,12,09,220.00
2007,10,02,12,10,218.00
2007,10,02,12,11,221.50
2007,10,02,12,12,230.00
2007,10,02,12,13,231.80
2007,10,02,12,14,240.20
2007,10,02,12,15,237.60
2007,10,02,12,16,247.10
2007,10,02,12,17,264.00
2007,10,02,12,18,282.70
2007,10,02,12,19,295.50
2007,10,02,12,20,298.00
2007,10,02,12,21,285.70
2007,10,02,12,22,278.50
2007,10,02,12,23,288.80
2007,10,02,12,24,285.40
2007,10,02,12,25,282.60
2007,10,02,12,26,286.40
2007,10,02,12,27,285.60
2007,10,02,12,28,311.70
2007,10,02,12,29,327.90
2007,10,02,12,30,323.30
2007,10,02,12,31,348.00
2007,10,02,12,32,327.30
2007,10,02,12,33,315.00
2007,10,02,12,34,260.30
2007,10,02,12,35,269.10
2007,10,02,12,36,316.20
2007,10,02,12,37,387.70
2007,10,02,12,38,375.60
2007,10,02,12,39,325.00
2007,10,02,12,40,311.00
2007,10,02,12,41,296.80
2007,10,02,12,42,305.60
2007,10,02,12,43,283.50
2007,10,02,12,44,298.00
2007,10,02,12,45,323.60
2007,10,02,12,46,328.10
2007,10,02,12,47,310.70
2007,10,02,12,48,291.70
2007,10,02,12,49,276.20
2007,10,02,12,50,265.70
2007,10,02,12,51,256.50
2007,10,02,12,52,249.40
2007,10,02,12,53,246.40
2007,10,02,12,54,247.70
2007,10,02,12,55,246.00
2007,10,02,12,56,243.10
2007,10,02,12,57,238.80
2007,10,02,12,58,235.00
2007,10,02,12,59,224.50
2007,10,02,13,00,206.60
2007,10,02,13,01,180.10
2007,10,02,13,02,146.70
2007,10,02,13,03,121.30
2007,10,02,13,04,112.80
2007,10,02,13,05,109.30
2007,10,02,13,06,108.80
2007,10,02,13,07,109.00
2007,10,02,13,08,96.40
2007,10,02,13,09,74.40
2007,10,02,13,10,62.70
2007,10,02,13,11,68.10
2007,10,02,13,12,75.40
2007,10,02,13,13,84.50
2007,10,02,13,14,86.00
2007,10,02,13,15,100.20
2007,10,02,13,16,117.10
2007,10,02,13,17,113.30
2007,10,02,13,18,111.00
2007,10,02,13,19,111.00
2007,10,02,13,20,118.20
2007,10,02,13,21,121.40
2007,10,02,13,22,127.00
2007,10,02,13,23,138.80
2007,10,02,13,24,148.60
2007,10,02,13,25,148.90
2007,10,02,13,26,137.30
2007,10,02,13,27,133.40
2007,10,02,13,28,147.50
2007,10,02,13,29,158.30
2007,10,02,13,30,162.50
2007,10,02,13,31,166.30
2007,10,02,13,32,166.60
2007,10,02,13,33,165.00
2007,10,02,13,34,162.80
2007,10,02,13,35,166.60
2007,10,02,13,36,172.90
2007,10,02,13,37,172.30
2007,10,02,13,38,167.60
2007,10,02,13,39,167.00
2007,10,02,13,40,165.30
2007,10,02,13,41,169.00
2007,10,02,13,42,169.00
2007,10,02,13,43,164.80
2007,10,02,13,44,162.00
2007,10,02,13,45,161.00
2007,10,02,13,46,154.50
2007,10,02,13,47,147.20
2007,10,02,13,48,139.10
2007,10,02,13,49,132.90
2007,10,02,13,50,131.40
2007,10,02,13,51,135.90
2007,10,02,13,52,139.00
2007,10,02,13,53,144.00
2007,10,02,13,54,150.10
2007,10,02,13,55,156.30
2007,10,02,13,56,167.20
2007,10,02,13,57,177.90
2007,10,02,13,58,187.50
2007,10,02,13,59,193.50
2007,10,02,14,00,201.80
2007,10,02,14,01,205.80
2007,10,02,14,02,204.40
2007,10,02,14,03,205.70
2007,10,02,14,04,214.00
2007,10,02,14,05,220.00
2007,10,02,14,06,217.70
2007,10,02,14,07,210.00
2007,10,02,14,08,201.50
2007,10,02,14,09,198.30
2007,10,02,14,10,195.40
2007,10,02,14,11,196.40
2007,10,02,14,12,194.00
2007,10,02,14,13,191.20
2007,10,02,14,14,190.00
2007,10,02,14,15,190.90
2007,10,02,14,16,192.00
2007,10,02,14,17,192.00
2007,10,02,14,18,195.10
2007,10,02,14,19,201.90
2007,10,02,14,20,213.20
2007,10,02,14,21,217.30
2007,10,02,14,22,214.90
2007,10,02,14,23,213.20
2007,10,02,14,24,211.20
2007,10,02,14,25,209.40
2007,10,02,14,26,204.80
2007,10,02,14,27,200.00
2007,10,02,14,28,200.00
2007,10,02,14,29,197.10
2007,10,02,14,30,198.90
2007,10,02,14,31,196.80
2007,10,02,14,32,195.00
2007,10,02,14,33,195.00
2007,10,02,14,34,195.50
2007,10,02,14,35,198.00
2007,10,02,14,36,201.60
2007,10,02,14,37,205.20
2007,10,02,14,38,206.50
2007,10,02,14,39,202.50
2007,10,02,14,40,194.00
2007,10,02,14,41,187.40
2007,10,02,14,42,182.30
2007,10,02,14,43,179.60
2007,10,02,14,44,178.40
2007,10,02,14,45,178.70
2007,10,02,14,46,180.50
2007,10,02,14,47,184.60
2007,10,02,14,48,185.00
2007,10,02,14,49,192.00
2007,10,02,14,50,190.20
2007,10,02,14,51,189.60
2007,10,02,14,52,183.00
2007,10,02,14,53,177.60
2007,10,02,14,54,173.70
2007,10,02,14,55,172.00
2007,10,02,14,56,172.40
2007,10,02,14,57,174.00
2007,10,02,14,58,173.40
2007,10,02,14,59,170.80
2007,10,02,15,00,166.30
2007,10,02,15,01,162.50
2007,10,02,15,02,160.90
2007,10,02,15,03,161.20
2007,10,02,15,04,162.60
2007,10,02,15,05,163.00
2007,10,02,15,06,163.00
2007,10,02,15,07,164.50
2007,10,02,15,08,165.00
2007,10,02,15,09,163.30
2007,10,02,15,10,160.30
2007,10,02,15,11,156.20
2007,10,02,15,12,158.00
2007,10,02,15,13,160.00
2007,10,02,15,14,162.00
2007,10,02,15,15,162.00
2007,10,02,15,16,161.60
2007,10,02,15,17,155.60
2007,10,02,15,18,152.70
2007,10,02,15,19,151.60
2007,10,02,15,20,153.00
2007,10,02,15,21,152.40
2007,10,02,15,22,151.60
2007,10,02,15,23,154.10
2007,10,02,15,24,157.00
2007,10,02,15,25,159.00
2007,10,02,15,26,160.00
2007,10,02,15,27,161.10
2007,10,02,15,28,160.70
2007,10,02,15,29,160.00
2007,10,02,15,30,158.70
2007,10,02,15,31,153.90
2007,10,02,15,32,147.70
2007,10,02,15,33,139.80
2007,10,02,15,34,132.40
2007,10,02,15,35,126.00
2007,10,02,15,36,120.50
2007,10,02,15,37,114.00
2007,10,02,15,38,106.80
2007,10,02,15,39,103.60
2007,10,02,15,40,99.20
2007,10,02,15,41,94.70
2007,10,02,15,42,93.00
2007,10,02,15,43,93.50
2007,10,02,15,44,95.00
2007,10,02,15,45,95.00
2007,10,02,15,46,94.30
2007,10,02,15,47,93.80
2007,10,02,15,48,96.00
2007,10,02,15,49,96.00
2007,10,02,15,50,95.00
2007,10,02,15,51,93.70
2007,10,02,15,52,90.90
2007,10,02,15,53,86.00
2007,10,02,15,54,81.70
2007,10,02,15,55,77.70
2007,10,02,15,56,77.00
2007,10,02,15,57,77.00
2007,10,02,15,58,76.00
2007,10,02,15,59,77.00
2007,10,02,16,00,78.90
2007,10,02,16,01,79.20
2007,10,02,16,02,83.30
2007,10,02,16,03,86.80
2007,10,02,16,04,92.20
2007,10,02,16,05,99.70
2007,10,02,16,06,109.20
2007,10,02,16,07,117.50
2007,10,02,16,08,123.40
2007,10,02,16,09,130.40
2007,10,02,16,10,135.30
2007,10,02,16,11,138.00
2007,10,02,16,12,140.70
2007,10,02,16,13,144.40
2007,10,02,16,14,150.70
2007,10,02,16,15,155.00
2007,10,02,16,16,159.90
2007,10,02,16,17,166.20
2007,10,02,16,18,168.70
2007,10,02,16,19,169.00
2007,10,02,16,20,170.60
2007,10,02,16,21,173.60
2007,10,02,16,22,176.00
2007,10,02,16,23,178.00
2007,10,02,16,24,181.00
2007,10,02,16,25,180.80
2007,10,02,16,26,179.60
2007,10,02,16,27,184.80
2007,10,02,16,28,194.40
2007,10,02,16,29,199.30
2007,10,02,16,30,197.00
2007,10,02,16,31,195.40
2007,10,02,16,32,192.60
2007,10,02,16,33,189.60
2007,10,02,16,34,186.00
2007,10,02,16,35,186.00
2007,10,02,16,36,185.40
2007,10,02,16,37,179.00
2007,10,02,16,38,170.90
2007,10,02,16,39,160.40
2007,10,02,16,40,156.40
2007,10,02,16,41,155.20
2007,10,02,16,42,155.00
2007,10,02,16,43,153.10
2007,10,02,16,44,154.70
2007,10,02,16,45,155.00
2007,10,02,16,46,160.10
2007,10,02,16,47,162.00
2007,10,02,16,48,161.80
2007,10,02,16,49,159.20
2007,10,02,16,50,151.40
2007,10,02,16,51,143.50
2007,10,02,16,52,140.80
2007,10,02,16,53,134.00
2007,10,02,16,54,126.10
2007,10,02,16,55,123.00
2007,10,02,16,56,125.00
2007,10,02,16,57,127.00
2007,10,02,16,58,127.00
2007,10,02,16,59,127.50
2007,10,02,17,00,129.10
2007,10,02,17,01,133.10
2007,10,02,17,02,154.40
2007,10,02,17,03,150.00
2007,10,02,17,04,154.70
2007,10,02,17,05,161.30
2007,10,02,17,06,171.40
2007,10,02,17,07,184.30
2007,10,02,17,08,179.60
2007,10,02,17,09,160.00
2007,10,02,17,10,144.20
2007,10,02,17,11,147.90
2007,10,02,17,12,145.40
2007,10,02,17,13,141.10
2007,10,02,17,14,136.60
2007,10,02,17,15,134.70
2007,10,02,17,16,134.00
2007,10,02,17,17,134.00
2007,10,02,17,18,134.40
2007,10,02,17,19,135.90
2007,10,02,17,20,138.00
2007,10,02,17,21,140.10
2007,10,02,17,22,141.00
2007,10,02,17,23,143.00
2007,10,02,17,24,144.00
2007,10,02,17,25,141.80
2007,10,02,17,26,141.80
2007,10,02,17,27,142.00
2007,10,02,17,28,142.00
2007,10,02,17,29,143.90
2007,10,02,17,30,142.10
2007,10,02,17,31,141.00
2007,10,02,17,32,139.00
2007,10,02,17,33,138.70
2007,10,02,17,34,133.80
2007,10,02,17,35,131.70
2007,10,02,17,36,129.50
2007,10,02,17,37,125.60
2007,10,02,17,38,118.20
2007,10,02,17,39,110.00
2007,10,02,17,40,100.50
2007,10,02,17,41,91.50
2007,10,02,17,42,83.80
2007,10,02,17,43,78.50
2007,10,02,17,44,73.80
2007,10,02,17,45,69.40
2007,10,02,17,46,62.50
2007,10,02,17,47,57.10
2007,10,02,17,48,52.20
2007,10,02,17,49,47.40
2007,10,02,17,50,44.30
2007,10,02,17,51,42.20
2007,10,02,17,52,42.00
2007,10,02,17,53,40.00
2007,10,02,17,54,40.00
2007,10,02,17,55,39.00
2007,10,02,17,56,39.00
2007,10,02,17,57,39.00
2007,10,02,17,58,38.70
2007,10,02,17,59,37.00
2007,10,02,18,00,36.50
2007,10,02,18,01,35.00
2007,10,02,18,02,35.00
2007,10,02,18,03,35.00
2007,10,02,18,04,35.00
2007,10,02,18,05,35.00
2007,10,02,18,06,34.00
2007,10,02,18,07,33.00
2007,10,02,18,08,33.00
2007,10,02,18,09,31.00
2007,10,02,18,10,28.60
2007,10,02,18,11,26.60
2007,10,02,18,12,25.20
2007,10,02,18,13,23.30
2007,10,02,18,14,21.20
2007,10,02,18,15,19.10
2007,10,02,18,16,18.00
2007,10,02,18,17,16.20
2007,10,02,18,18,14.00
2007,10,02,18,19,11.90
2007,10,02,18,20,10.80
2007,10,02,18,21,9.00
2007,10,02,18,22,8.60
2007,10,02,18,23,7.00
2007,10,02,18,24,7.00
2007,10,02,18,25,6.40
2007,10,02,18,26,5.00
2007,10,02,18,27,5.00
2007,10,02,18,28,5.00
2007,10,02,18,29,5.00
2007,10,02,18,30,5.00
2007,10,02,18,31,1.90
2007,10,02,18,32,0.00
2007,10,02,18,33,0.00
2007,10,02,18,34,0.00
2007,10,02,18,35,0.00
2007,10,02,18,36,0.00
2007,10,02,18,37,0.00
2007,10,02,18,38,0.00
2007,10,02,18,39,0.00
2007,10,02,18,40,0.00
2007,10,02,18,41,0.00
2007,10,02,18,42,0.00
2007,10,02,18,43,0.00
2007,10,02,18,44,0.00
2007,10,02,18,45,0.00
2007,10,02,18,46,0.00
2007,10,02,18,47,0.00
2007,10,02,18,48,0.00
2007,10,02,18,49,0.00
2007,10,02,18,50,0.00
2007,10,02,18,51,0.00
2007,10,02,18,52,0.00
2007,10,02,18,53,0.00
2007,10,02,18,54,0.00
2007,10,02,18,55,0.00
2007,10,02,18,56,0.00
2007,10,02,18,57,0.00
2007,10,02,18,58,0.00
2007,10,02,18,59,0.00
2007,10,02,19,00,0.00
2007,10,02,19,01,0.00
2007,10,02,19,02,0.00
2007,10,02,19,03,0.00
2007,10,02,19,04,0.00
2007,10,02,19,05,0.00
2007,10,02,19,06,0.00
2007,10,02,19,07,0.00
2007,10,02,19,08,0.00
2007,10,02,19,09,0.00
2007,10,02,19,10,0.00
2007,10,02,19,11,0.00
2007,10,02,19,12,0.00
2007,10,02,19,13,0.00
2007,10,02,19,14,0.00
2007,10,02,19,15,0.00
2007,10,02,19,16,0.00
2007,10,02,19,17,0.00
2007,10,02,19,18,0.00
2007,10,02,19,19,0.00
2007,10,02,19,20,0.00
2007,10,02,19,21,0.00
2007,10,02,19,22,0.00
2007,10,02,19,23,0.00
2007,10,02,19,24,0.00
2007,10,02,19,25,0.00
2007,10,02,19,26,0.00
2007,10,02,19,27,0.00
2007,10,02,19,28,0.00
2007,10,02,19,29,0.00
2007,10,02,19,30,0.00
2007,10,02,19,31,0.00
2007,10,02,19,32,0.00
2007,10,02,19,33,0.00
2007,10,02,19,34,0.00
2007,10,02,19,35,0.00
2007,10,02,19,36,0.00
2007,10,02,19,37,0.00
2007,10,02,19,38,0.00
2007,10,02,19,39,0.00
2007,10,02,19,40,0.00
2007,10,02,19,41,0.00
2007,10,02,19,42,0.00
2007,10,02,19,43,0.00
2007,10,02,19,44,0.00
2007,10,02,19,45,0.00
2007,10,02,19,46,0.00
2007,10,02,19,47,0.00
2007,10,02,19,48,0.00
2007,10,02,19,49,0.00
2007,10,02,19,50,0.00
2007,10,02,19,51,0.00
2007,10,02,19,52,0.00
2007,10,02,19,53,0.00
2007,10,02,19,54,0.00
2007,10,02,19,55,0.00
2007,10,02,19,56,0.00
2007,10,02,19,57,0.00
2007,10,02,19,58,0.00
2007,10,02,19,59,0.00
2007,10,02,20,00,0.00
2007,10,02,20,01,0.00
2007,10,02,20,02,0.00
2007,10,02,20,03,0.00
2007,10,02,20,04,0.00
2007,10,02,20,05,0.00
2007,10,02,20,06,0.00
2007,10,02,20,07,0.00
2007,10,02,20,08,0.00
2007,10,02,20,09,0.00
2007,10,02,20,10,0.00
2007,10,02,20,11,0.00
2007,10,02,20,12,0.00
2007,10,02,20,13,0.00
2007,10,02,20,14,0.00
2007,10,02,20,15,0.00
2007,10,02,20,16,0.00
2007,10,02,20,17,0.00
2007,10,02,20,18,0.00
2007,10,02,20,19,0.00
2007,10,02,20,20,0.00
2007,10,02,20,21,0.00
2007,10,02,20,22,0.00
2007,10,02,20,23,0.00
2007,10,02,20,24,0.00
2007,10,02,20,25,0.00
2007,10,02,20,26,0.00
2007,10,02,20,27,0.00
2007,10,02,20,28,0.00
2007,10,02,20,29,0.00
2007,10,02,20,30,0.00
2007,10,02,20,31,0.00
2007,10,02,20,32,0.00
2007,10,02,20,33,0.00
2007,10,02,20,34,0.00
2007,10,02,20,35,0.00
2007,10,02,20,36,0.00
2007,10,02,20,37,0.00
2007,10,02,20,38,0.00
2007,10,02,20,39,0.00
2007,10,02,20,40,0.00
2007,10,02,20,41,0.00
2007,10,02,20,42,0.00
2007,10,02,20,43,0.00
2007,10,02,20,44,0.00
2007,10,02,20,45,0.00
2007,10,02,20,46,0.00
2007,10,02,20,47,0.00
2007,10,02,20,48,0.00
2007,10,02,20,49,0.00
2007,10,02,20,50,0.00
2007,10,02,20,51,0.00
2007,10,02,20,52,0.00
2007,10,02,20,53,0.00
2007,10,02,20,54,0.00
2007,10,02,20,55,0.00
2007,10,02,20,56,0.00
2007,10,02,20,57,0.00
2007,10,02,20,58,0.00
2007,10,02,20,59,0.00
2007,10,02,21,00,0.00
2007,10,02,21,01,0.00
2007,10,02,21,02,0.00
2007,10,02,21,03,0.00
2007,10,02,21,04,0.00
2007,10,02,21,05,0.00
2007,10,02,21,06,0.00
2007,10,02,21,07,0.00
2007,10,02,21,08,0.00
2007,10,02,21,09,0.00
2007,10,02,21,10,0.00
2007,10,02,21,11,0.00
2007,10,02,21,12,0.00
2007,10,02,21,13,0.00
2007,10,02,21,14,0.00
2007,10,02,21,15,0.00
2007,10,02,21,16,0.00
2007,10,02,21,17,0.00
2007,10,02,21,18,0.00
2007,10,02,21,19,0.00
2007,10,02,21,20,0.00
2007,10,02,21,21,0.00
2007,10,02,21,22,0.00
2007,10,02,21,23,0.00
2007,10,02,21,24,0.00
2007,10,02,21,25,0.00
2007,10,02,21,26,0.00
2007,10,02,21,27,0.00
2007,10,02,21,28,0.00
2007,10,02,21,29,0.00
2007,10,02,21,30,0.00
2007,10,02,21,31,0.00
2007,10,02,21,32,0.00
2007,10,02,21,33,0.00
2007,10,02,21,34,0.00
2007,10,02,21,35,0.00
2007,10,02,21,36,0.00
2007,10,02,21,37,0.00
2007,10,02,21,38,0.00
2007,10,02,21,39,0.00
2007,10,02,21,40,0.00
2007,10,02,21,41,0.00
2007,10,02,21,42,0.00
2007,10,02,21,43,0.00
2007,10,02,21,44,0.00
2007,10,02,21,45,0.00
2007,10,02,21,46,0.00
2007,10,02,21,47,0.00
2007,10,02,21,48,0.00
2007,10,02,21,49,0.00
2007,10,02,21,50,0.00
2007,10,02,21,51,0.00
2007,10,02,21,52,0.00
2007,10,02,21,53,0.00
2007,10,02,21,54,0.00
2007,10,02,21,55,0.00
2007,10,02,21,56,0.00
2007,10,02,21,57,0.00
2007,10,02,21,58,0.00
2007,10,02,21,59,0.00
2007,10,02,22,00,0.00
2007,10,02,22,01,0.00
2007,10,02,22,02,0.00
2007,10,02,22,03,0.00
2007,10,02,22,04,0.00
2007,10,02,22,05,0.00
2007,10,02,22,06,0.00
2007,10,02,22,07,0.00
2007,10,02,22,08,0.00
2007,10,02,22,09,0.00
2007,10,02,22,10,0.00
2007,10,02,22,11,0.00
2007,10,02,22,12,0.00
2007,10,02,22,13,0.00
2007,10,02,22,14,0.00
2007,10,02,22,15,0.00
2007,10,02,22,16,0.00
2007,10,02,22,17,0.00
2007,10,02,22,18,0.00
2007,10,02,22,19,0.00
2007,10,02,22,20,0.00
2007,10,02,22,21,0.00
2007,10,02,22,22,0.00
2007,10,02,22,23,0.00
2007,10,02,22,24,0.00
2007,10,02,22,25,0.00
2007,10,02,22,26,0.00
2007,10,02,22,27,0.00
2007,10,02,22,28,0.00
2007,10,02,22,29,0.00
2007,10,02,22,30,0.00
2007,10,02,22,31,0.00
2007,10,02,22,32,0.00
2007,10,02,22,33,0.00
2007,10,02,22,34,0.00
2007,10,02,22,35,0.00
2007,10,02,22,36,0.00
2007,10,02,22,37,0.00
2007,10,02,22,38,0.00
2007,10,02,22,39,0.00
2007,10,02,22,40,0.00
2007,10,02,22,41,0.00
2007,10,02,22,42,0.00
2007,10,02,22,43,0.00
2007,10,02,22,44,0.00
2007,10,02,22,45,0.00
2007,10,02,22,46,0.00
2007,10,02,22,47,0.00
2007,10,02,22,48,0.00
2007,10,02,22,49,0.00
2007,10,02,22,50,0.00
2007,10,02,22,51,0.00
2007,10,02,22,52,0.00
2007,10,02,22,53,0.00
2007,10,02,22,54,0.00
2007,10,02,22,55,0.00
2007,10,02,22,56,0.00
2007,10,02,22,57,0.00
2007,10,02,22,58,0.00
2007,10,02,22,59,0.00
2007,10,02,23,00,0.00
2007,10,02,23,01,0.00
2007,10,02,23,02,0.00
2007,10,02,23,03,0.00
2007,10,02,23,04,0.00
2007,10,02,23,05,0.00
2007,10,02,23,06,0.00
2007,10,02,23,07,0.00
2007,10,02,23,08,0.00
2007,10,02,23,09,0.00
2007,10,02,23,10,0.00